Location: Arcueil
(48.7999°N, 2.3326°E)
Time: 19:03:43
(UTC+00:00)

EO-79 - Pass Details

Date: 21 June 2024
Orbit: 555 x 577 km, 98.0° (Epoch: 19 July)

Event Time Altitude Azimuth Distance (km) Brightness Sun altitude
Rises 02:31:50 0° 23° (NNE) 2,760 ? -9.5°
Reaches altitude 10° 02:34:13 10° 35° (NE) 1,855 ? -9.3°
Maximum altitude 02:37:43 29° 96° (E) 1,050 ? -8.9°
Drops below altitude 10° 02:41:11 10° 157° (SSE) 1,835 ? -8.5°
Sets 02:43:31 0° 169° (SSE) 2,724 ? -8.3°
